sat.trackr.live / text

‹ back to catalog

STARLINK-34906

NORAD 65896 · 2025-224Q

PAYLOAD ACTIVE UNKNOWN

§ Identity

Operator
Country
US
Launch date
2025-10-07
Launch site
AFETR
Launch vehicle
Mass (kg)
RCS (m²)

Purposes: comms

External: N2YO · Heavens-Above · Gunter

§ Orbital elements

Epoch: 2026-09-20T05:59:28.018176Z

Period
94.01 min
Inclination
53.1606°
Eccentricity
0.0001558
Mean motion
15.31716726 rev/d
Perigee alt
469.6 km
Apogee alt
471.8 km
Semi-major
6,848.8 km
B*
5.0235e-4
RAAN
186.1175°
Arg perigee
102.1213°
Mean anomaly
257.9964°
Rev number
5,468

§ Raw data

STARLINK-349061 65896U 25224Q   26263.24962984  .00015263  00000+0  50235-3 0  99962 65896  53.1606 186.1175 0001558 102.1213 257.9964 15.31716726 54689

JSON: /api/v1/satellites/65896 · /tle

For live sub-satellite position, see the globe view (requires WebGL).

§ Visibility from observer

Set your observer location to see the next 7 days of passes ≥ 10°. The values pass through the URL so the page stays shareable.

No JS? Fill the form by hand. The geolocation button needs JavaScript.